Weather History for Moses Lake, WA

Change the Weather History Date:

Friday, February 7, 2014

  Actual Average Record
Temperature  
Mean Temperature 11 °F 34 °F  
Max Temperature 21 °F 41 °F 55 °F (1998)
Min Temperature 1 °F 26 °F -5 °F (1985)
Degree Days  
Heating Degree Days 54 32  
Month to date heating degree days 341 225  
Since 1 July heating degree days 4025 3899  
Cooling Degree Days 0 0  
Month to date cooling degree days 0 0  
Year to date cooling degree days 0 0  
Moisture  
Dew Point 9 °F    
Average Humidity 78    
Maximum Humidity 88    
Minimum Humidity 67    
Precipitation  
Precipitation 0.02 in 0.03 in 0.26 in (2002)
Month to date precipitation 0.02 0.26  
Year to date precipitation 0.42 1.40  
Sea Level Pressure  
Sea Level Pressure 29.95 in    
Wind  
Wind Speed 7 mph (North)    
Max Wind Speed 14 mph    
Max Gust Speed 16 mph    
Visibility 7 miles    
Events Fog , Snow    
T = Trace of Precipitation, MM = Missing Value Source: NWS Daily Summary

Daily Weather History Graph

Daily Weather History Graph

Search for Another Location

Airport:

Trip Planner

Search our weather history database for the weather conditions in past years. The results will help you decide how hot, cold, wet, or windy it might be!

Date:

Astronomy

Feb. 07, 2014 Rise Set
Actual Time 7:14 AM PST 5:09 PM PST
Civil Twilight 6:42 AM PST 5:41 PM PST
Nautical Twilight 6:06 AM PST 6:17 PM PST
Astronomical Twilight 5:30 AM PST 6:53 PM PST
Moon 11:19 AM PST (2/7) 1:38 AM PST (2/7)
Length of Visible Light 10h 59m
Length of Day
9h 54m
First Quarter, 60% of the Moon is Illuminated
Feb 7
First Quarter
Feb 14
Full
Feb 22
Last Quarter
Mar 1
New
Mar 8
First Quarter

Hourly Weather History & Observations

Time (PST) Temp. Windchill Dew Point Humidity Pressure Visibility Wind Dir Wind Speed Gust Speed Precip Events Conditions
12:28 AM 15.1 °F 1.8 °F 10.9 °F 84% 29.81 in 2.0 mi North 11.5 mph - 0.00 in Snow Light Snow
12:52 AM 15.1 °F 1.8 °F 10.9 °F 84% 29.88 in 2.5 mi North 11.5 mph - 0.00 in Snow Light Snow
1:42 AM 15.1 °F 2.5 °F 10.9 °F 84% 29.81 in 3.0 mi North 10.4 mph - 0.00 in Snow Light Snow
1:52 AM 15.1 °F 1.8 °F 10.9 °F 84% 29.87 in 4.0 mi North 11.5 mph - 0.00 in Snow Light Snow
2:10 AM 15.1 °F 2.5 °F 10.9 °F 84% 29.81 in 4.0 mi North 10.4 mph - 0.00 in Snow Light Snow
2:21 AM 15.1 °F 2.5 °F 10.9 °F 84% 29.81 in 2.5 mi North 10.4 mph - 0.00 in Snow Light Snow
2:31 AM 15.1 °F 1.8 °F 12.0 °F 88% 29.82 in 1.2 mi North 11.5 mph - 0.00 in Snow Light Snow
2:52 AM 15.1 °F 2.5 °F 12.0 °F 88% 29.88 in 1.2 mi North 10.4 mph - 0.01 in Snow Light Snow
3:03 AM 15.1 °F 2.5 °F 12.0 °F 88% 29.82 in 1.0 mi NNW 10.4 mph - 0.00 in Snow Light Snow
3:12 AM 15.1 °F 2.5 °F 12.0 °F 88% 29.83 in 0.8 mi NNW 10.4 mph - 0.00 in Snow Light Snow
3:22 AM 15.1 °F 3.3 °F 12.0 °F 88% 29.83 in 1.2 mi North 9.2 mph - 0.00 in Snow Light Snow
3:30 AM 15.1 °F 3.3 °F 10.9 °F 84% 29.83 in 2.0 mi North 9.2 mph - 0.00 in Snow Light Snow
3:52 AM 15.1 °F 3.3 °F 12.0 °F 88% 29.89 in 2.0 mi North 9.2 mph - 0.01 in Snow Light Snow
4:13 AM 15.1 °F 3.3 °F 10.9 °F 84% 29.84 in 4.0 mi NNW 9.2 mph - 0.00 in Snow Light Snow
4:52 AM 12.0 °F 1.5 °F 9.0 °F 88% 29.92 in 6.0 mi NNW 6.9 mph - 0.00 in Snow Light Snow
5:13 AM 9.0 °F -4.2 °F 6.1 °F 88% 29.86 in 10.0 mi NNW 9.2 mph - 0.00 in   Scattered Clouds
5:52 AM 5.0 °F -8.1 °F 3.0 °F 92% 29.95 in 10.0 mi NW 8.1 mph - 0.00 in   Clear
6:52 AM 3.0 °F -4.4 °F -0.0 °F 87% 29.96 in 10.0 mi West 3.5 mph - N/A   Clear
7:52 AM 3.9 °F - -0.0 °F 84% 29.99 in 10.0 mi Calm Calm - N/A   Clear
8:52 AM 8.1 °F - 5.0 °F 87% 30.02 in 10.0 mi Calm Calm - N/A   Partly Cloudy
8:59 AM 8.1 °F - 5.0 °F 87% 29.96 in 0.5 mi Calm Calm - N/A Fog Light Freezing Fog
9:06 AM 9.0 °F - 6.1 °F 88% 29.96 in 1.2 mi Calm Calm - N/A   Partly Cloudy
9:14 AM 9.0 °F - 6.1 °F 88% 29.97 in 3.0 mi Calm Calm - N/A   Scattered Clouds
9:21 AM 9.0 °F - 5.0 °F 84% 29.97 in 2.5 mi Calm Calm - N/A   Scattered Clouds
9:29 AM 10.0 °F - 5.0 °F 80% 29.97 in 8.0 mi Calm Calm - N/A   Partly Cloudy
9:52 AM 10.0 °F 3.6 °F 6.1 °F 84% 30.04 in 6.0 mi East 3.5 mph - N/A   Clear
10:52 AM 12.9 °F 3.8 °F 8.1 °F 81% 30.05 in 10.0 mi SSE 5.8 mph - N/A   Partly Cloudy
11:34 AM 15.1 °F 6.4 °F 10.0 °F 80% 30.00 in 10.0 mi SSE 5.8 mph - N/A   Mostly Cloudy
11:52 AM 17.1 °F 10.0 °F 10.9 °F 77% 30.06 in 10.0 mi ESE 4.6 mph - N/A   Scattered Clouds
12:52 PM 18.0 °F 9.8 °F 12.0 °F 78% 30.05 in 10.0 mi ESE 5.8 mph - N/A   Scattered Clouds
1:34 PM 19.9 °F 13.4 °F 12.9 °F 74% 29.98 in 10.0 mi East 4.6 mph - N/A   Mostly Cloudy
1:44 PM 19.0 °F 12.3 °F 12.0 °F 74% 29.98 in 10.0 mi ESE 4.6 mph - N/A   Scattered Clouds
1:52 PM 19.0 °F 12.3 °F 12.0 °F 74% 30.05 in 10.0 mi SE 4.6 mph - N/A   Scattered Clouds
2:00 PM 19.0 °F 12.3 °F 12.0 °F 74% 29.99 in 10.0 mi SE 4.6 mph - N/A   Mostly Cloudy
2:52 PM 19.9 °F 13.4 °F 10.9 °F 68% 30.04 in 10.0 mi NE 4.6 mph - N/A   Partly Cloudy
3:36 PM 19.0 °F 11.1 °F 12.0 °F 74% 29.98 in 10.0 mi NE 5.8 mph - N/A   Mostly Cloudy
3:52 PM 18.0 °F 8.7 °F 10.9 °F 74% 30.04 in 10.0 mi NNE 6.9 mph - N/A   Overcast
4:25 PM 17.1 °F 6.6 °F 10.0 °F 74% 29.97 in 10.0 mi North 8.1 mph - N/A   Partly Cloudy
4:52 PM 14.0 °F 3.9 °F 8.1 °F 77% 30.03 in 10.0 mi North 6.9 mph - N/A   Clear
5:52 PM 14.0 °F - 8.1 °F 77% 30.04 in 10.0 mi North - - N/A   Mostly Cloudy
6:52 PM 12.0 °F 1.5 °F 7.0 °F 80% 30.04 in 10.0 mi NNE 6.9 mph - N/A   Scattered Clouds
7:52 PM 10.9 °F -0.8 °F 6.1 °F 81% 30.02 in 10.0 mi North 8.1 mph - N/A   Partly Cloudy
8:52 PM 12.0 °F -1.3 °F 7.0 °F 80% 30.01 in 10.0 mi North 10.4 mph - N/A   Unknown
9:52 PM 12.0 °F -1.3 °F 7.0 °F 80% 30.00 in 10.0 mi North 10.4 mph - N/A   Partly Cloudy
10:52 PM 12.9 °F -0.9 °F 8.1 °F 81% 29.99 in 10.0 mi North 11.5 mph - N/A   Overcast
11:52 PM 14.0 °F 2.9 °F 9.0 °F 80% 29.99 in 10.0 mi North 8.1 mph - N/A   Overcast